TimePDT,TemperatureF,Dew PointF,Humidity,Sea Level PressureIn,VisibilityMPH,Wind Direction,Wind SpeedMPH,Gust SpeedMPH,PrecipitationIn,Events,Conditions,WindDirDegrees,DateUTC
12:22 AM,75.2,69.8,83,29.92,-9999.0,NE,10.4,18.4,0.63,Thunderstorm,Thunderstorm,40,2013-08-23 07:22:00
12:31 AM,77.0,69.8,78,29.92,2.5,North,11.5,18.4,0.75,Rain-Thunderstorm,Heavy Thunderstorms and Rain,350,2013-08-23 07:31:00
12:39 AM,77.0,69.8,78,29.93,5.0,NW,11.5,-,0.78,Rain-Thunderstorm,Thunderstorms and Rain,310,2013-08-23 07:39:00
12:56 AM,77.0,70.0,79,29.82,6.0,SE,6.9,-,0.82,Rain-Thunderstorm,Light Thunderstorms and Rain,140,2013-08-23 07:56:00
1:33 AM,78.8,71.6,78,29.90,10.0,NNW,5.8,-,0.01,Rain,Light Rain,340,2013-08-23 08:33:00
1:48 AM,78.8,71.6,78,29.90,10.0,NNE,9.2,-,0.01,Thunderstorm,Partly Cloudy,30,2013-08-23 08:48:00
1:56 AM,78.1,72.0,81,29.80,10.0,ENE,8.1,-,0.01,Thunderstorm,Scattered Clouds,60,2013-08-23 08:56:00
2:03 AM,77.0,71.6,83,29.90,10.0,ENE,6.9,-,N/A,,Partly Cloudy,60,2013-08-23 09:03:00
2:56 AM,78.1,70.0,76,29.83,10.0,West,8.1,-,N/A,,Partly Cloudy,270,2013-08-23 09:56:00
3:37 AM,78.8,71.6,78,29.88,10.0,Calm,Calm,-,0.01,Thunderstorm,Thunderstorm,0,2013-08-23 10:37:00
3:52 AM,78.8,71.6,78,29.88,10.0,Calm,Calm,-,0.01,Rain,Light Rain,0,2013-08-23 10:52:00
3:56 AM,79.0,72.0,79,29.77,10.0,SSE,6.9,-,0.01,Rain,Light Rain,160,2013-08-23 10:56:00
4:56 AM,78.1,69.1,74,29.78,10.0,West,8.1,-,0.00,,Partly Cloudy,270,2013-08-23 11:56:00
5:56 AM,79.0,69.1,72,29.75,10.0,WNW,3.5,-,N/A,,Clear,300,2013-08-23 12:56:00
6:56 AM,79.0,69.1,72,29.76,10.0,WSW,3.5,-,N/A,,Clear,250,2013-08-23 13:56:00
7:56 AM,82.9,66.0,56,29.77,10.0,Calm,Calm,-,N/A,,Clear,0,2013-08-23 14:56:00
8:56 AM,84.9,66.9,55,29.78,10.0,Calm,Calm,-,N/A,,Clear,0,2013-08-23 15:56:00
3:56 PM,100.9,60.1,26,29.62,10.0,ENE,4.6,-,N/A,,Clear,60,2013-08-23 22:56:00
4:56 PM,102.0,57.9,23,29.60,10.0,East,6.9,-,N/A,,Clear,90,2013-08-23 23:56:00
5:56 PM,102.0,59.0,24,29.59,10.0,ENE,4.6,-,N/A,,Clear,60,2013-08-24 00:56:00
6:56 PM,99.0,61.0,28,29.58,10.0,North,6.9,-,N/A,,Clear,350,2013-08-24 01:56:00
7:56 PM,96.1,64.9,36,29.60,10.0,NW,4.6,-,N/A,,Clear,320,2013-08-24 02:56:00
8:56 PM,95.0,66.0,38,29.62,10.0,Calm,Calm,-,N/A,,Clear,0,2013-08-24 03:56:00
9:56 PM,93.0,70.0,47,29.63,10.0,Calm,Calm,-,N/A,,Clear,0,2013-08-24 04:56:00
10:56 PM,93.0,68.0,44,29.63,10.0,Calm,Calm,-,N/A,,Clear,0,2013-08-24 05:56:00
11:56 PM,91.9,66.9,44,29.64,10.0,West,3.5,-,N/A,,Clear,280,2013-08-24 06:56:00